BLX73J EFHK-ENBR

Flight info

Callsign BLX73J
Flight time N/A
Altitude 36000
Route ADIVO Y365 POGOK DCT PESUR
Aircraft B738/M-SDGIJ1LRWY/SB1

Departure

Time N/A
Airport Helsinki Vantaa Airport (EFHK)

Arrival

Time 2026-05-03 20:33
Airport Bergen Airport, Flesland (ENBR)
Time Latitude Longitude Altitude Speed Heading
2026-05-03 20:15 60.26960 7.31648 23302 ft 364 kts 264°
2026-05-03 20:15 60.26794 7.26603 22815 ft 361 kts 264°
2026-05-03 20:15 60.26625 7.21594 22320 ft 359 kts 264°
2026-05-03 20:15 60.26456 7.16622 21838 ft 356 kts 264°
2026-05-03 20:16 60.26286 7.11696 21364 ft 353 kts 264°
2026-05-03 20:16 60.26114 7.06804 20882 ft 350 kts 264°
2026-05-03 20:16 60.25943 7.01960 20399 ft 348 kts 264°
2026-05-03 20:16 60.25771 6.97154 19918 ft 345 kts 264°
2026-05-03 20:17 60.25598 6.92379 19441 ft 343 kts 264°
2026-05-03 20:17 60.25425 6.87644 18955 ft 339 kts 264°
2026-05-03 20:17 60.25252 6.82955 18474 ft 336 kts 264°
2026-05-03 20:17 60.25079 6.78293 18002 ft 336 kts 264°
2026-05-03 20:18 60.24904 6.73642 17526 ft 334 kts 265°
2026-05-03 20:18 60.24729 6.69030 17050 ft 330 kts 265°
2026-05-03 20:18 60.24550 6.64454 16598 ft 328 kts 264°
2026-05-03 20:18 60.24206 6.59973 16062 ft 325 kts 258°
2026-05-03 20:19 60.23665 6.55589 15491 ft 323 kts 255°
2026-05-03 20:19 60.23068 6.51271 14931 ft 321 kts 255°
2026-05-03 20:19 60.22485 6.46959 14371 ft 319 kts 256°
2026-05-03 20:19 60.21944 6.42719 14119 ft 307 kts 257°
2026-05-03 20:20 60.21449 6.38675 13655 ft 293 kts 257°
2026-05-03 20:20 60.20985 6.34785 13140 ft 282 kts 256°
2026-05-03 20:20 60.20535 6.30981 12399 ft 281 kts 257°
2026-05-03 20:20 60.20087 6.27211 11696 ft 278 kts 257°
2026-05-03 20:21 60.19642 6.23473 10949 ft 277 kts 257°
2026-05-03 20:21 60.19197 6.19754 10296 ft 275 kts 257°
2026-05-03 20:21 60.18754 6.16077 10016 ft 264 kts 257°
2026-05-03 20:21 60.18332 6.12581 9886 ft 253 kts 257°
2026-05-03 20:22 60.17924 6.09197 9636 ft 248 kts 257°
2026-05-03 20:22 60.17520 6.05842 9284 ft 247 kts 257°
2026-05-03 20:22 60.17118 6.02510 8968 ft 245 kts 257°
2026-05-03 20:22 60.16718 5.99198 8632 ft 244 kts 257°
2026-05-03 20:23 60.16320 5.95909 8302 ft 243 kts 257°
2026-05-03 20:23 60.15915 5.92585 7970 ft 253 kts 257°
2026-05-03 20:23 60.15485 5.89082 7592 ft 262 kts 257°
2026-05-03 20:23 60.15048 5.85547 7238 ft 262 kts 257°
2026-05-03 20:24 60.14610 5.82027 6874 ft 260 kts 257°
2026-05-03 20:24 60.14175 5.78516 6530 ft 260 kts 257°
2026-05-03 20:24 60.13740 5.74997 6165 ft 260 kts 257°
2026-05-03 20:24 60.13304 5.71482 5810 ft 260 kts 257°
2026-05-03 20:25 60.12869 5.67979 5452 ft 259 kts 257°
2026-05-03 20:25 60.12434 5.64484 5090 ft 259 kts 257°
2026-05-03 20:25 60.12001 5.60988 4724 ft 258 kts 257°
2026-05-03 20:25 60.11580 5.57572 4384 ft 248 kts 258°
2026-05-03 20:26 60.11171 5.54294 4101 ft 238 kts 257°
2026-05-03 20:26 60.10777 5.51168 4021 ft 228 kts 258°
2026-05-03 20:26 60.10388 5.48105 3942 ft 227 kts 257°
2026-05-03 20:26 60.09996 5.45044 3871 ft 227 kts 258°
2026-05-03 20:27 60.09655 5.41973 3774 ft 226 kts 264°
2026-05-03 20:27 60.09701 5.38832 3498 ft 227 kts 282°
2026-05-03 20:27 60.10050 5.35799 3368 ft 219 kts 285°
2026-05-03 20:27 60.10390 5.32891 3314 ft 208 kts 283°
2026-05-03 20:28 60.10749 5.30168 3257 ft 196 kts 292°
2026-05-03 20:28 60.11491 5.28006 3161 ft 188 kts 324°
2026-05-03 20:28 60.12696 5.27091 2989 ft 187 kts 354°
2026-05-03 20:28 60.13983 5.26929 2819 ft 182 kts 353°
2026-05-03 20:29 60.15217 5.26563 2614 ft 177 kts 348°
2026-05-03 20:29 60.16402 5.26125 2463 ft 168 kts 348°
2026-05-03 20:29 60.17500 5.25758 2447 ft 156 kts 349°
2026-05-03 20:29 60.18575 5.25405 2186 ft 155 kts 349°
2026-05-03 20:30 60.19604 5.25063 2016 ft 147 kts 348°
2026-05-03 20:30 60.20607 5.24728 1751 ft 143 kts 348°
2026-05-03 20:30 60.21571 5.24406 1573 ft 140 kts 348°
2026-05-03 20:30 60.22539 5.24083 1367 ft 141 kts 348°
2026-05-03 20:31 60.23504 5.23763 1174 ft 141 kts 348°
2026-05-03 20:31 60.24469 5.23441 975 ft 140 kts 348°
2026-05-03 20:31 60.25434 5.23118 776 ft 141 kts 348°
2026-05-03 20:31 60.26393 5.22789 574 ft 140 kts 347°
2026-05-03 20:32 60.27353 5.22437 359 ft 140 kts 349°
2026-05-03 20:32 60.28312 5.22159 177 ft 139 kts 349°
2026-05-03 20:32 60.29164 5.21872 159 ft 101 kts 351°
2026-05-03 20:32 60.29695 5.21690 142 ft 55 kts 351°
2026-05-03 20:33 60.29968 5.21610 150 ft 27 kts
2026-05-03 20:33 60.30020 5.21651 153 ft 1 kts 54°
2026-05-03 20:33 60.30022 5.21655 153 ft 0 kts 57°
2026-05-03 20:33 60.30028 5.21675 153 ft 3 kts 60°
2026-05-03 20:34 60.30044 5.21767 154 ft 10 kts 73°
2026-05-03 20:34 60.30018 5.21940 153 ft 17 kts 121°
2026-05-03 20:34 60.29939 5.22003 152 ft 8 kts 188°
2026-05-03 20:34 60.29913 5.21992 152 ft 2 kts 192°
2026-05-03 20:35 60.29864 5.21969 152 ft 12 kts 189°
2026-05-03 20:35 60.29769 5.21976 151 ft 14 kts 174°
2026-05-03 20:35 60.29668 5.22009 149 ft 15 kts 167°
2026-05-03 20:35 60.29571 5.22054 152 ft 13 kts 168°
2026-05-03 20:36 60.29489 5.22088 154 ft 11 kts 168°
2026-05-03 20:36 60.29420 5.22113 156 ft 9 kts 170°
2026-05-03 20:36 60.29366 5.22131 158 ft 6 kts 172°
2026-05-03 20:36 60.29324 5.22142 159 ft 5 kts 172°
2026-05-03 20:37 60.29289 5.22151 159 ft 7 kts 172°
2026-05-03 20:37 60.29213 5.22172 161 ft 14 kts 171°
2026-05-03 20:37 60.29122 5.22208 164 ft 12 kts 167°
2026-05-03 20:37 60.29074 5.22288 167 ft 7 kts 108°
2026-05-03 20:38 60.29057 5.22342 169 ft 3 kts 136°
2026-05-03 20:38 60.29031 5.22415 170 ft 9 kts 121°
2026-05-03 20:38 60.28999 5.22501 172 ft 3 kts 133°
2026-05-03 20:38 60.28989 5.22523 172 ft 0 kts 133°
2026-05-03 20:39 60.28988 5.22524 172 ft 0 kts 133°
2026-05-03 20:39 60.28981 5.22538 173 ft 4 kts 132°
2026-05-03 20:39 60.28967 5.22571 174 ft 1 kts 130°
2026-05-03 20:39 60.28964 5.22578 175 ft 2 kts 130°
2026-05-03 20:40 60.28963 5.22581 175 ft 0 kts 130°
2026-05-03 20:40 60.28962 5.22583 175 ft 0 kts 130°